{"data":{"norad_id":65601,"epoch":"2026-05-25T03:31:42.716352Z","epoch_age_seconds":65368,"freshness":"FRESH","line1":"1 65601U 25207K   26145.14702218 -.00000707  00000+0 -44928-4 0  9993","line2":"2 65601  97.4500 213.6230 0001584 132.2770 227.8592 15.05647981 39768","mean_motion":15.05647981,"eccentricity":0.0001584,"inclination_deg":97.45,"raan_deg":213.623,"arg_perigee_deg":132.277,"mean_anomaly_deg":227.8592,"bstar":-4.4928e-5,"rev_number":3976,"period_min":95.639885163835,"perigee_km":548.42000667978,"apogee_km":550.61468757695,"semimajor_km":6927.6543471284,"source":"CELESTRAK","updated_at":"2026-05-25T13:38:20.853816Z"}}